Location: Andershausen
(51.8462°N, 9.8595°E)
Time: 10:17:13
(UTC+00:00)

Meteor 2-3 Rocket - Pass Details

Date: 18 November 2025
Orbit: 841 x 884 km, 81.2° (Epoch: 11 December)

Event Time Altitude Azimuth Distance (km) Brightness Sun altitude
Rises 18:28:44 0° 344° (NNW) 3,469 7.1 -27.9°
Reaches altitude 10° 18:31:14 10° 339° (NNW) 2,520 6.4 -28.3°
Maximum altitude 18:36:45 52° 265° (W) 1,059 4.4 -29.1°
Drops below altitude 10° 18:42:11 10° 190° (S) 2,475 6.1 -29.9°
Sets 18:44:38 0° 186° (S) 3,400 6.8 -30.3°
